NapervilleWeather.com

Find the Weather for any City, State  
or Zipcode, or Country:

Naperville, IL Weather
Local Radar

Local Radar

Graphs, Details
Graphs and Gauges
Detailed Weather
Detailed Reports
Ajax Version (old)
Davis Summary
Davis Current Weather Graphs
Davis 24 Hour Weather History
Cumulus

CW7164 Data

Weather Underground
www.awekas.at
Automatic Weather Map System
Latest Naperville, Illinois, weather
Weather For You
Maps
Temperature
Heat Index
Windchill
Humidity
Radar
Dew Point
Wind
Visibility
Visible Satellite
Satellite
Fronts
Snow Depth
Jet Stream
Flight Rules
Forecast Maps
Temperature Forecast
Maximum Temperature Forecast
Minimum Temperature Forecast
Dewpoint Forecast
Prevalent Weather
12Hr Probability of Precip.
Sky Cover
Health Maps
UV Forecast
Air Quality
Peak Air Quality Index
Weather Station
Davis Instruments Vantage Pro2
Current Conditions [Select Refresh to Update]

Updated: 1:21pm on 7/23/14

(location)
Currently:
76.7°F

Clear
Clear

High: 77.9 °F< 
(12:00am
Low: 63.7 °F 
(6:20am)
Wind: SW 0 mph
Calm
Gust: 5 mph
Today's High Wind: 7 mph (9:07am)
Humidity: 48%
Pressure: 30.13 in  (Steady
Pressure Rate: -0.008 in/hr
Dew Point: 55.6°F
Wind Chill: 76.7 °F
Heat Index (feels like): 77.3 °F
Comfort Level: Comfortable
Temperature Rate:  1.29°F/hr
 
5 Day Forecast
 
Wed Thu Fri Sat Sun
Clear Clear Clear Clear Clear
Partly Cloudy Clear Chance T-storms Chance T-storms Partly Cloudy
75 77 79 84 82
54 55 66 61 59

Records and Normals
 
Temperature Forecast Normal Record
High 75 85 93
(1999)
Low 54 63 48
(2000)
 
 
Weather Advisories
No Warnings
Full Advisory Text...
Weather Map

Web Cam

Almanac
 
Sunrise:  
5:39am
Moonrise: 
2:57am

Moon Phase:
9%

Sunset: 
8:21pm
Moonset:  
5:48pm
 Star Chart...
Rainfall Totals
Hourly Rain 0.00 in
Daily Rain: 0.01 in
Monthly Rain: 2.15 in
Yearly Rain: 22.97 in
Normal Rain, month to date: 2.17 in
Normal Rain, year to date: 16.75 in
Local Weather Exchange Network
Station ID City 
(Click for Map Location)
Neighborhood 
(Click for History)
Last Update (Date & Time) Temperature
 ()
Dew
Point ()
Humidity 
(%)
Wind 
(mph)
from the Wind Gust 
(mph) 
Pressure(in) Hourly
Rain(in)
KILNAPER15 Naperville Indian Hill Near Jefferson JHS 07/23 13:05:19 75.6 57.0 52 6 East 11 30.10 0.00
KILNAPER25 Naperville brushhill-w 07/23 12:56:49 74.1 56.0 54 2 North 5 30.10 0.00
KILNAPER24 Naperville Brush Hill 07/23 12:48:08 74.7 58.0 56 2 NW 8 30.05 0.00
KILWARRE4 Warrenville Cerny Park 07/23 13:04:53 79.7 59.0 49 2 East 4 30.30 0.00
KILNAPER19 Naperville Brookdale Lakes 07/23 13:05:20 77.8 60.0 54 2 East 5 30.10 0.00
KILNAPER7 Naperville NapervilleWeather.com Near Ogden and Naper Blvd 07/23 13:05:21 76.3 56.0 49 0 WSW 5 30.14 0.00
KILWARRE2 Warrenville Warrenville Neighborhood Weather 07/23 13:05:13 74.1 58.0 57 1 ENE 6 30.09 0.00
KILNAPER23 Naperville Naper Blvd at BNSF RR 07/23 13:05:21 75.0 57.0 54 3 NE 7 30.12 0.00
KILNAPER9 Naperville 75th St. / Modaff Area 07/23 13:05:14 76.3 59.0 56 1 West 5 30.10 0.00
KILWHEAT8 Wheaton Wheaton Sanitary District 07/23 13:00:48 75.1 59.0 57 3 NE 12 30.11 0.00
KILWHEAT11 Wheaton Wheaton SW Orth Ct 07/23 13:05:20 75.1 59.0 57 0 East 2 30.26 0.00
KILLOMBA6 Wheaton Danada West 07/23 13:05:20 75.3 52.0 45 4 ENE 16 30.13 0.00
KILNAPER16 Naperville SE Naperville / NE Clow Arpt 07/23 13:05:18 76.3 57.0 51 12 NE 16 30.13 0.00
KILNAPER22 Naperville Willow Ridge 07/23 13:00:15 76.5 63.0 64 2 West 0 29.94 0.00
KILWHEAT5 Wheaton N9ABF - West Wheaton 07/23 12:58:52 76.1 57.0 52 0 NNE 0 30.12 0.00
KILWINFI2 Winfield Winfield Heights (SarahNet) 07/23 13:00:43 77.5 56.0 47 4 NE 13 30.11 0.00
KILWOODR4 Woodridge Woodridge Neighborhood Weather 07/23 13:04:15 75.0 54.0 49 8 North 23 30.10 0.00
KILWINFI3 Winfield Fredericksburg Farm 07/23 13:05:19 75.0 55.0 50 5 NW 9 30.04 0.00
KILWHEAT10 Wheaton Wheaton College 07/23 13:05:16 74.9 54.0 49 8 NE 15 30.10 0.00
KILWOODR2 Woodridge Woodridge 07/23 13:05:18 74.5 55.0 51 12 East 12 30.00 0.00
KILWOODR1 Woodridge 75th Street/ Janes Ave 07/23 13:05:19 77.4 60.0 56 2 SW 4 29.39 0.00
KILBATAV5 Batavia Fermi National Accelerator Laboratory 07/23 12:52:51 74.5 56.0 53 6 NW 16 30.08 0.00
KILBOLIN15 Bolingbrook Winding Meadows 07/23 13:05:20 74.2 53.0 48 10 East 11 30.17 0.00
KILBOLIN20 Bolingbrook Bolingbrook - Royce Road 07/23 13:05:18 76.2 53.0 45 6 NNE 6 29.47 0.00
KILDOWNE3 Downers Grove Maple Woods West 07/23 13:05:22 74.7 60.0 59 2 NE 6 30.17 0.00
KILBOLIN12 Bolingbrook UnderTheThunder HQ 07/23 13:00:54 75.4 58.0 54 6 ENE 6 30.12 0.00
KILBOLIN13 Bolingbrook UnderTheThunder.org Van 07/23 13:04:46 78.4 58.0 50 1 SW 2 30.07 0.00
KILAUROR22 Aurora Lakewood Valley 07/23 12:55:21 75.7 59.0 57 9 East 0 29.90 0.00
KILNAPER4 Naperville 1.1 mi.West. of Rt 59 & 103rd St. 07/23 13:04:16 73.9 56.0 54 1 North 3 30.06 0.00
KILCHICA63 Glen Ellyn Glen Ellyn Neighborhood Weather 07/23 13:03:57 79.9 0.0 0 0 North 0 0.00 0.00
KILAUROR23 Aurora Summerlin 07/23 13:02:30 74.8 55.0 51 12 North 0 29.99 0.00
KILGLENE7 Glen Ellyn Glen Ellyn Civic Center 07/23 13:01:10 72.9 54.0 51 14 NNE 19 30.17 0.00
KILDOWNE6 Downers Grove DGMidTown 07/23 12:56:42 75.6 58.0 54 4 North 0 30.02 0.00
KILBOLIN8 Bolingbrook Bolingbrook Neighborhood Weather 07/23 13:05:22 73.8 56.0 53 0 ENE 6 30.12 0.00
KILBOLIN16 Bolingbrook Huntington Estates 07/23 13:05:19 73.6 54.0 50 7 NE 18 30.11 0.00
KILWESTC8 West Chicago Ingalton Hills Estates 07/23 13:05:19 75.0 53.0 46 7 North 7 30.17 0.00
KDPA Chicago DuPage Official Station 07/23 11:52:00 75.0 55.0 50 17 North --- 30.14 ---
KLOT Romeoville Official Station 07/23 12:55:00 73.0 50.0 43 23 NNE --- 30.16 ---
KARR Aurora Official Station 07/23 11:52:00 75.0 53.0 46 18 NNE --- 30.15 ---
KJOT Joliet Official Station 07/23 12:55:00 74.0 50.0 44 15 NNE --- 30.16 ---
Full Advisory Text
No Warnings

Ambient Weather and Weather Underground
 Never base important decisions on this or any weather information obtained from the Internet
Updated Automatically by Ambient Weather's Virtual Weather Station  V14.01